Date,TemperatureHighF,TemperatureAvgF,TemperatureLowF,DewpointHighF,DewpointAvgF,DewpointLowF,HumidityHigh,HumidityAvg,HumidityLow,PressureMaxIn,PressureMinIn,WindSpeedMaxMPH,WindSpeedAvgMPH,GustSpeedMaxMPH,PrecipitationSumIn
2013-11-1,70.7,63.2,55.4,62.2,56.0,49.7,98,79,51,29.77,29.36,1,1,0,0.00
2013-11-2,62.4,52.8,41.3,51.6,44.6,31.5,98,77,38,29.74,29.59,1,1,0,22.27
2013-11-3,50.9,41.8,30.0,47.8,29.0,14.0,95,63,33,30.42,29.71,1,1,0,0.00
2013-11-4,40.5,31.6,25.2,18.2,13.5,11.1,63,48,31,30.69,30.42,1,1,0,0.00
2013-11-5,47.1,35.8,24.8,32.9,24.5,14.3,83,64,48,30.69,30.51,1,1,0,0.00
2013-11-6,57.6,48.1,38.5,47.3,40.1,31.9,87,74,56,30.51,29.98,1,1,0,0.00
2013-11-7,62.8,52.9,37.6,58.0,47.8,30.9,94,83,66,30.01,29.65,1,1,0,0.00
2013-11-8,47.1,39.2,32.9,31.4,25.0,21.1,77,57,40,30.06,29.77,1,1,0,0.00
2013-11-9,44.6,38.9,33.1,25.4,20.1,17.3,55,47,36,30.15,30.01,1,1,0,0.00
2013-11-10,49.8,43.8,37.9,43.7,35.8,23.2,93,74,55,30.04,29.71,1,1,0,0.00
2013-11-11,48.2,43.3,37.9,32.5,25.9,22.8,68,51,38,30.04,29.77,1,1,0,0.00
2013-11-12,46.9,35.6,27.3,31.6,17.3,9.5,67,47,41,30.12,29.83,1,1,0,0.00
2013-11-13,34.2,28.8,24.1,12.1,9.1,5.7,54,43,33,30.24,30.06,1,1,0,0.00
2013-11-14,48.9,37.3,28.8,24.4,18.7,9.1,59,47,37,30.09,29.95,1,1,0,0.00
2013-11-15,56.3,39.9,29.7,28.0,22.8,17.4,75,53,26,30.15,30.04,1,1,0,0.00
2013-11-16,52.9,39.7,33.1,33.6,28.9,23.9,94,68,34,30.30,30.12,1,1,0,0.00
2013-11-17,50.9,44.2,32.5,50.4,43.2,30.9,98,96,92,30.30,29.83,1,1,0,0.00
2013-11-18,61.3,54.2,45.9,58.8,46.2,30.4,98,77,46,29.86,29.47,1,1,0,0.00
2013-11-19,46.4,37.8,30.7,31.4,17.1,10.9,56,43,33,30.21,29.59,1,1,0,0.00
2013-11-20,40.1,31.7,24.6,12.6,9.8,6.8,52,40,29,30.57,30.21,1,1,0,0.00
2013-11-21,44.4,32.1,21.2,20.4,14.3,9.2,68,49,28,30.60,30.33,1,1,0,0.00
2013-11-22,43.3,39.0,31.6,38.9,33.2,19.8,95,80,60,30.33,29.77,1,1,0,0.00
2013-11-23,41.5,37.4,29.5,41.0,23.6,11.4,98,60,32,29.86,29.71,1,1,0,0.00
2013-11-24,29.5,24.1,21.4,14.2,3.5,-2.2,56,41,32,29.86,29.71,1,1,0,0.00
2013-11-25,41.3,25.5,17.1,31.5,1.0,-5.8,38,32,25,30.30,29.97,1,1,0,22.27
2013-11-26,37.6,33.7,28.6,24.2,17.4,5.7,66,52,37,30.30,30.04,1,1,0,0.00
2013-11-27,54.3,49.2,34.3,53.8,48.0,24.2,98,95,66,30.04,29.18,1,1,0,0.00
2013-11-28,36.9,30.8,22.8,32.5,14.8,3.0,84,52,34,30.39,29.36,1,1,0,0.00
2013-11-29,29.7,23.3,16.0,7.9,3.6,-0.2,55,42,31,30.71,30.39,1,1,0,0.00
2013-11-30,33.1,23.6,11.3,19.3,10.2,-0.5,69,56,49,30.74,30.36,1,1,0,0.00